Location: Stone Trail Observatory
(44.2408°N, 105.6081°W)
Time: 22:55:28
(UTC-06:00)

Iridium 6 - Visible Passes

Search period start: 29 September 2016 00:00
Search period end: 09 October 2016 00:00
Orbit: 776 x 779 km, 86.4° (Epoch: 29 September)

Date Brightness Start Highest point End Pass type
(mag) Time Alt. Az. Time Alt. Az. Time Alt. Az.
29 Sep 6.9 04:25:38 10° SSE 04:30:22 37° E 04:35:07 10° NNE visible
29 Sep 6.4 06:06:43 10° SW 06:11:08 28° WNW 06:15:37 10° NNW visible
30 Sep 7.8 03:53:16 10° SE 03:57:06 21° E 04:00:56 10° NNE visible
30 Sep 5.7 05:32:24 10° SSW 05:37:26 49° W 05:42:30 10° N visible
01 Oct 8.4 03:22:11 10° E 03:23:57 12° ENE 03:25:44 10° NE visible
01 Oct 5.4 04:59:33 15° S 05:03:51 87° W 05:09:06 10° N visible
02 Oct 6.2 04:27:19 23° SSE 04:30:23 52° E 04:35:27 10° NNE visible
02 Oct 6.8 06:07:52 11° WSW 06:11:26 20° WNW 06:15:15 10° NNW visible
03 Oct 7.2 03:54:55 22° ESE 03:57:03 29° E 04:01:31 10° NNE visible
03 Oct 6.1 05:35:28 25° WSW 05:37:39 34° W 05:42:25 10° NNW visible
04 Oct 8.0 03:22:23 15° E 03:23:50 17° ENE 03:27:05 10° NE visible
04 Oct 5.4 05:02:55 50° SW 05:03:59 62° W 05:09:11 10° N visible
05 Oct 5.6 04:30:15 74° ESE 04:30:27 75° E 04:35:41 10° N visible
05 Oct 7.1 06:10:47 14° W 06:11:48 14° WNW 06:14:34 10° NW visible
06 Oct 6.7 03:57:32 40° ENE 03:57:32 40° ENE 04:01:56 10° NNE visible
06 Oct 6.5 05:38:03 25° WNW 05:38:03 25° WNW 05:42:11 10° NNW visible
07 Oct 7.7 03:24:44 22° ENE 03:24:44 22° ENE 03:27:50 10° NNE visible
07 Oct 6.1 05:05:14 38° NW 05:05:14 38° NW 05:09:10 10° N visible
08 Oct 8.4 02:51:52 12° ENE 02:51:52 12° ENE 02:53:00 10° NE visible
08 Oct 6.3 04:32:22 42° N 04:32:22 42° N 04:35:49 10° N visible
